• Em Portugal
  • Lista de países
  • Para 7 dias
  • Temperatura da água
  • Mapas de satélite
  • Mapa do tempo
  • Widgets de tempo
  • user-avatar
    Iniciar Sessão

    Previsão horária em Punta Gorda

    Hoje, 25 Setembro, Segunda-feira

    Tempo Temperatura Precipitação Vento Pressão Humidade
    00:00 +28°C° 0,7 mm 1 m/s 755 mmHg 87%
    01:00 +28°C° 1 mm 1 m/s 755 mmHg 87%
    02:00 +27°C° 1 mm 1 m/s 755 mmHg 88%
    03:00 +27°C° 1 mm 1 m/s 754 mmHg 88%
    04:00 +27°C° 0,6 mm 1 m/s 754 mmHg 89%
    05:00 +27°C° 0,6 mm 1 m/s 755 mmHg 89%
    06:00 +27°C° 0,6 mm 1 m/s 755 mmHg 89%
    07:00 +29°C° 0,1 mm 1 m/s 755 mmHg 80%
    08:00 +31°C° 0,1 mm 1 m/s 755 mmHg 71%
    09:00 +33°C° 0,1 mm 1 m/s 756 mmHg 63%
    10:00 +35°C° 0,4 mm 1 m/s 755 mmHg 59%
    11:00 +36°C° 0,4 mm 1 m/s 755 mmHg 55%
    12:00 +37°C° 0,4 mm 1 m/s 754 mmHg 51%
    13:00 +38°C° 0,5 mm 2 m/s 754 mmHg 52%
    14:00 +38°C° 0,5 mm 2 m/s 753 mmHg 53%
    15:00 +37°C° 0,5 mm 2 m/s 752 mmHg 54%
    16:00 +36°C° 0,3 mm 3 m/s 752 mmHg 60%
    17:00 +34°C° 0,3 mm 3 m/s 753 mmHg 67%
    18:00 +31°C° 0,3 mm 3 m/s 753 mmHg 73%
    19:00 +30°C° 1,2 mm 2 m/s 754 mmHg 77%
    20:00 +29°C° 1,2 mm 2 m/s 754 mmHg 82%
    21:00 +28°C° 1,2 mm 2 m/s 755 mmHg 86%
    22:00 +28°C° 0,7 mm 1 m/s 755 mmHg 86%
    23:00 +28°C° 0,7 mm 1 m/s 755 mmHg 87%

    Amanhã, 26 Setembro, Terça-feira

    Tempo Temperatura Precipitação Vento Pressão Humidade
    00:00 +28°C° 0,7 mm 1 m/s 754 mmHg 87%
    01:00 +28°C° 0,4 mm 1 m/s 754 mmHg 87%
    02:00 +27°C° 0,4 mm 1 m/s 754 mmHg 88%
    03:00 +27°C° 0,4 mm 1 m/s 754 mmHg 88%
    04:00 +27°C° 0,1 mm 1 m/s 754 mmHg 89%
    05:00 +27°C° 0,1 mm 1 m/s 754 mmHg 89%
    06:00 +27°C° 0,1 mm 1 m/s 754 mmHg 90%
    07:00 +29°C° 0,1 mm 1 m/s 755 mmHg 79%
    08:00 +31°C° 0,1 mm 1 m/s 755 mmHg 69%
    09:00 +33°C° 0,1 mm 1 m/s 756 mmHg 58%
    10:00 +35°C° 0 mm 1 m/s 755 mmHg 53%
    11:00 +36°C° 0 mm 1 m/s 755 mmHg 48%
    12:00 +39°C° 0 mm 2 m/s 754 mmHg 44%
    13:00 +39°C° 0,1 mm 2 m/s 753 mmHg 44%
    14:00 +39°C° 0,1 mm 2 m/s 753 mmHg 44%
    15:00 +38°C° 0,1 mm 2 m/s 752 mmHg 44%
    16:00 +36°C° 0 mm 3 m/s 752 mmHg 52%
    17:00 +35°C° 0 mm 3 m/s 753 mmHg 60%
    18:00 +33°C° 0 mm 3 m/s 753 mmHg 67%
    19:00 +31°C° 0,4 mm 3 m/s 754 mmHg 72%
    20:00 +30°C° 0,4 mm 2 m/s 754 mmHg 78%
    21:00 +29°C° 0,4 mm 2 m/s 755 mmHg 83%
    22:00 +29°C° 1 mm 2 m/s 755 mmHg 84%
    23:00 +28°C° 1 mm 1 m/s 755 mmHg 86%

    Depois de amanhã, 27 Setembro, Quarta-feira

    Tempo Temperatura Precipitação Vento Pressão Humidade
    00:00 +28°C° 1 mm 1 m/s 754 mmHg 87%
    01:00 +28°C° 0 mm 1 m/s 754 mmHg 87%
    02:00 +28°C° 0 mm 1 m/s 754 mmHg 87%
    03:00 +28°C° 0 mm 1 m/s 753 mmHg 87%
    04:00 +27°C° 0 mm 1 m/s 754 mmHg 87%
    05:00 +27°C° 0 mm 1 m/s 754 mmHg 87%
    06:00 +27°C° 0 mm 1 m/s 754 mmHg 86%
    07:00 +29°C° 0 mm 1 m/s 754 mmHg 79%
    08:00 +30°C° 0 mm 1 m/s 755 mmHg 72%
    09:00 +32°C° 0 mm 1 m/s 755 mmHg 65%
    10:00 +34°C° 0 mm 1 m/s 755 mmHg 59%
    11:00 +35°C° 0 mm 1 m/s 754 mmHg 53%
    12:00 +37°C° 0 mm 1 m/s 754 mmHg 46%
    13:00 +37°C° 0,1 mm 1 m/s 753 mmHg 47%
    14:00 +37°C° 0,1 mm 1 m/s 752 mmHg 48%
    15:00 +37°C° 0,1 mm 1 m/s 752 mmHg 48%
    16:00 +35°C° 0,2 mm 1 m/s 752 mmHg 56%
    17:00 +33°C° 0,2 mm 1 m/s 753 mmHg 63%
    18:00 +31°C° 0,2 mm 1 m/s 753 mmHg 70%
    19:00 +30°C° 0,3 mm 1 m/s 754 mmHg 74%
    20:00 +29°C° 0,3 mm 1 m/s 755 mmHg 78%
    21:00 +29°C° 0,3 mm 1 m/s 756 mmHg 82%
    22:00 +28°C° 0,3 mm 1 m/s 756 mmHg 83%
    23:00 +28°C° 0,3 mm 1 m/s 755 mmHg 85%

    28 Setembro, Quinta-feira

    Tempo Temperatura Precipitação Vento Pressão Humidade
    00:00 +26°C° 0,3 mm 0 m/s 755 mmHg 86%
    01:00 +28°C° 0,1 mm 1 m/s 755 mmHg 87%
    02:00 +27°C° 0,1 mm 1 m/s 754 mmHg 87%
    03:00 +27°C° 0,1 mm 1 m/s 754 mmHg 88%
    04:00 +27°C° 0 mm 2 m/s 754 mmHg 88%
    05:00 +27°C° 0 mm 2 m/s 755 mmHg 88%
    06:00 +27°C° 0 mm 2 m/s 755 mmHg 88%
    07:00 +29°C° 0 mm 2 m/s 756 mmHg 82%
    08:00 +30°C° 0 mm 2 m/s 756 mmHg 76%
    09:00 +31°C° 0 mm 1 m/s 757 mmHg 71%
    10:00 +33°C° 0,2 mm 1 m/s 756 mmHg 65%
    11:00 +34°C° 0,2 mm 1 m/s 755 mmHg 59%
    12:00 +36°C° 0,2 mm 1 m/s 754 mmHg 54%
    13:00 +36°C° 0,3 mm 1 m/s 754 mmHg 54%
    14:00 +36°C° 0,3 mm 1 m/s 753 mmHg 55%
    15:00 +36°C° 0,3 mm 1 m/s 753 mmHg 55%
    16:00 +34°C° 0,1 mm 1 m/s 753 mmHg 62%
    17:00 +32°C° 0,1 mm 2 m/s 754 mmHg 69%
    18:00 +30°C° 0,1 mm 2 m/s 754 mmHg 76%
    19:00 +30°C° 0,5 mm 2 m/s 755 mmHg 79%
    20:00 +29°C° 0,5 mm 2 m/s 756 mmHg 82%
    21:00 +29°C° 0,5 mm 1 m/s 756 mmHg 85%
    22:00 +28°C° 1 mm 1 m/s 756 mmHg 88%
    23:00 +28°C° 1 mm 1 m/s 756 mmHg 91%

    29 Setembro, Sexta-feira

    Tempo Temperatura Precipitação Vento Pressão Humidade
    00:00 +28°C° 1 mm 1 m/s 756 mmHg 94%
    01:00 +27°C° 0,5 mm 1 m/s 755 mmHg 94%
    02:00 +27°C° 0,5 mm 1 m/s 755 mmHg 95%
    03:00 +27°C° 0,5 mm 1 m/s 755 mmHg 96%
    04:00 +27°C° 0,5 mm 1 m/s 755 mmHg 96%
    05:00 +27°C° 0,5 mm 1 m/s 756 mmHg 95%
    06:00 +27°C° 0,5 mm 1 m/s 756 mmHg 95%
    07:00 +28°C° 0,2 mm 1 m/s 756 mmHg 88%
    08:00 +30°C° 0,2 mm 1 m/s 757 mmHg 81%
    09:00 +31°C° 0,2 mm 1 m/s 757 mmHg 73%
    10:00 +33°C° 0,1 mm 1 m/s 756 mmHg 66%
    11:00 +35°C° 0,1 mm 1 m/s 756 mmHg 58%
    12:00 +36°C° 0,1 mm 1 m/s 755 mmHg 50%
    13:00 +36°C° 0,4 mm 1 m/s 754 mmHg 54%
    14:00 +36°C° 0,4 mm 2 m/s 754 mmHg 58%
    15:00 +35°C° 0,4 mm 2 m/s 753 mmHg 62%
    16:00 +34°C° 0,2 mm 2 m/s 754 mmHg 68%
    17:00 +31°C° 0,2 mm 2 m/s 754 mmHg 73%
    18:00 +30°C° 0,2 mm 2 m/s 755 mmHg 78%
    19:00 +29°C° 0,7 mm 2 m/s 755 mmHg 81%
    20:00 +29°C° 0,7 mm 2 m/s 756 mmHg 84%
    21:00 +28°C° 0,7 mm 2 m/s 756 mmHg 86%
    22:00 +28°C° 0,4 mm 1 m/s 756 mmHg 88%
    23:00 +28°C° 0,4 mm 1 m/s 756 mmHg 89%

    30 Setembro, Sábado

    Tempo Temperatura Precipitação Vento Pressão Humidade
    00:00 +28°C° 0,4 mm 1 m/s 755 mmHg 91%
    01:00 +28°C° 1,2 mm 1 m/s 755 mmHg 91%
    02:00 +28°C° 1,2 mm 1 m/s 755 mmHg 91%
    03:00 +27°C° 1,2 mm 1 m/s 755 mmHg 91%
    04:00 +27°C° 0,6 mm 1 m/s 755 mmHg 91%
    05:00 +27°C° 0,6 mm 1 m/s 755 mmHg 91%
    06:00 +27°C° 0,6 mm 1 m/s 756 mmHg 92%
    07:00 +28°C° 0,4 mm 1 m/s 756 mmHg 86%
    08:00 +30°C° 0,4 mm 1 m/s 756 mmHg 81%
    09:00 +31°C° 0,4 mm 1 m/s 757 mmHg 76%
    10:00 +32°C° 0,6 mm 1 m/s 756 mmHg 70%
    11:00 +34°C° 0,6 mm 1 m/s 756 mmHg 65%
    12:00 +33°C° 0,6 mm 0 m/s 755 mmHg 60%
    13:00 +35°C° 0,3 mm 1 m/s 755 mmHg 59%
    14:00 +35°C° 0,3 mm 1 m/s 754 mmHg 58%
    15:00 +36°C° 0,3 mm 2 m/s 753 mmHg 58%
    16:00 +34°C° 0,6 mm 2 m/s 754 mmHg 65%
    17:00 +32°C° 0,6 mm 2 m/s 754 mmHg 72%
    18:00 +30°C° 0,6 mm 2 m/s 755 mmHg 80%
    19:00 +29°C° 0,9 mm 2 m/s 755 mmHg 83%
    20:00 +29°C° 0,9 mm 2 m/s 756 mmHg 86%
    21:00 +28°C° 0,9 mm 2 m/s 756 mmHg 89%
    22:00 +28°C° 1,2 mm 1 m/s 756 mmHg 90%
    23:00 +28°C° 1,2 mm 1 m/s 756 mmHg 92%
    Mostrar mais